Location: Newark
(44.4156°N, 12.1972°E)
Time: 02:18:20
(UTC+00:00)

STARLINK-1069 - Pass Details

Date: 31 January 2020
Orbit: 348 x 351 km, 53.0° (Epoch: 23 February)

Event Time Altitude Azimuth Distance (km) Brightness Sun altitude
Rises 16:50:14 0° 306° (NW) 2,180 7.2 -6.2°
Reaches altitude 10° 16:52:20 10° 315° (NW) 1,333 6.0 -6.5°
Maximum altitude 16:55:09 38° 26° (NNE) 557 3.3 -7.0°
Drops below altitude 10° 16:57:58 10° 98° (E) 1,327 5.0 -7.5°
Enters shadow 16:58:19 - 100° (E) 1,468 5.3 -7.5°
